Simultaneous Nadir Overpasses (SNOs) Predictions

Prediction of SNOs between METOP-A and NPP Satellite Orbit:

Table of predicted SNOs for the next 14.0 days since TLE Epoch: 11/10/2016
Index Date (METOP-A) Time (METOP-A) Lat,Lon (METOP-A) SZA (METOP-A ) Date (NPP) Time (NPP) Lat,Lon (NPP) SZA (NPP ) Distance(km) Time Diff (sec)
1 11/23/2016 18:25:46 73.52,-103.07 93.99 11/23/2016 18:24:39 73.52,-105.87 94.07 88.29 67
2 11/23/2016 19:16:30 -73.44, 64.07 86.08 11/23/2016 19:15:22 -73.45, 61.61 86.01 77.94 68
3 11/23/2016 20:07:14 73.20,-129.13 93.70 11/23/2016 20:06:03 73.23,-130.58 93.77 46.56 71
4 11/23/2016 20:57:58 -73.12, 38.01 86.38 11/23/2016 20:56:46 -73.16, 36.89 86.30 36.53 72
5 11/23/2016 21:48:41 72.92,-155.07 93.45 11/23/2016 21:47:27 72.93,-155.31 93.47 8.09 74
6 11/23/2016 22:39:25 -72.84, 12.09 86.63 11/23/2016 22:38:10 -72.86, 12.15 86.60 2.90 75
7 11/23/2016 23:30:04 72.85, 179.44 93.39 11/23/2016 23:28:55 72.84, 179.52 93.38 2.90 69
8 11/24/2016 00:20:46 -72.87, -13.19 86.59 11/24/2016 00:19:40 -72.87, -13.23 86.58 1.58 66
9 11/24/2016 01:11:26 72.83, 154.06 93.39 11/24/2016 01:10:25 72.84, 154.13 93.40 2.86 61
10 11/24/2016 02:02:08 -72.85, -38.57 86.59 11/24/2016 02:01:10 -72.87, -38.62 86.56 2.89 58
11 11/24/2016 02:52:47 72.86, 128.78 93.43 11/24/2016 02:51:55 72.85, 128.74 93.42 1.54 52
12 11/24/2016 03:43:30 -72.83, -63.96 86.60 11/24/2016 03:42:39 -72.83, -63.90 86.60 1.96 51
13 11/24/2016 04:34:09 72.84, 103.39 93.42 11/24/2016 04:33:25 72.85, 103.36 93.44 2.18 44
14 11/24/2016 05:24:51 -72.86, -89.24 86.56 11/24/2016 05:24:09 -72.83, -89.29 86.58 3.16 42
15 11/24/2016 06:15:31 72.81, 78.01 93.41 11/24/2016 06:14:54 72.81, 78.08 93.41 2.51 37
16 11/24/2016 07:06:13 -72.84,-114.62 86.56 11/24/2016 07:05:39 -72.84,-114.67 86.56 1.56 34
17 11/24/2016 07:56:53 72.79, 52.62 93.41 11/24/2016 07:56:24 72.81, 52.69 93.43 3.35 29
18 11/24/2016 08:47:35 -72.81,-140.01 86.57 11/24/2016 08:47:08 -72.79,-139.95 86.59 3.05 27
19 11/24/2016 09:38:14 72.82, 27.34 93.45 11/24/2016 09:37:54 72.82, 27.31 93.45 1.13 20
20 11/24/2016 10:28:57 -72.79,-165.39 86.58 11/24/2016 10:28:38 -72.80,-165.34 86.57 1.99 19
21 11/24/2016 11:19:36 72.80, 1.96 93.44 11/24/2016 11:19:24 72.82, 1.92 93.47 2.98 12
22 11/24/2016 12:10:18 -72.82, 169.33 86.54 11/24/2016 12:10:08 -72.80, 169.28 86.55 2.56 10
23 11/24/2016 13:00:58 72.78, -23.43 93.43 11/24/2016 13:00:53 72.78, -23.36 93.43 2.37 5
24 11/24/2016 13:51:40 -72.80, 143.94 86.54 11/24/2016 13:51:38 -72.81, 143.89 86.53 1.90 2
25 11/24/2016 14:42:19 72.81, -48.71 93.48 11/24/2016 14:42:23 72.78, -48.74 93.45 2.70 4
26 11/24/2016 15:33:02 -72.78, 118.56 86.55 11/24/2016 15:33:07 -72.76, 118.61 86.56 2.44 5
27 11/24/2016 16:23:41 72.78, -74.10 93.47 11/24/2016 16:23:53 72.79, -74.13 93.47
